Fairbanks, AK

7:09 PM AKST on February 23, 2017 (GMT -0900)
Fairbanks International

Weather History for PAFA - May, 2013

Change the Weather History Date:

Monday, May 27, 2013

  Actual Average Record
Temperature  
Mean Temperature 67 °F 54 °F  
Max Temperature 82 °F 65 °F 85 °F (2011)
Min Temperature 51 °F 42 °F 28 °F (1927)
Degree Days  
Heating Degree Days 0 11  
Month to date heating degree days 646 444  
Since 1 July heating degree days 14805 13468  
Cooling Degree Days 2 0  
Month to date cooling degree days 2 0  
Year to date cooling degree days 2 0  
Growing Degree Days 16 (Base 50)    
Moisture  
Dew Point 38 °F    
Average Humidity 34    
Maximum Humidity 62    
Minimum Humidity 12    
Precipitation  
Precipitation 0.00 in 0.02 in 0.77 in (1955)
Month to date precipitation 0.15 0.50  
Year to date precipitation 2.34 2.06  
Snow  
Snow 0.00 in 0.00 in 0.10 in (1978)
Month to date snowfall 2.0 0.9  
Since 1 July snowfall 68.6 65.0  
Snow Depth 0.00 in    
Sea Level Pressure  
Sea Level Pressure 29.80 in    
Wind  
Wind Speed 4 mph (NE)    
Max Wind Speed 9 mph    
Max Gust Speed -    
Visibility 10 miles    
Events      
T = Trace of Precipitation, MM = Missing Value Source: NWS Daily Summary

Daily Weather History Graph

Daily Weather History Graph

Search for Another Location

Airport or City:

Trip Planner

Search our weather history database for the weather conditions in past years. The results will help you decide how hot, cold, wet, or windy it might be!

Date:

Astronomy

May. 27, 2013 Rise Set
Actual Time 3:47 AM AKDT 11:52 PM AKDT
Civil Twilight 2:21 AM AKDT Sun does not rise
Nautical Twilight Sun does not rise Sun does not rise
Astronomical Twilight Sun does not rise Sun does not rise
Moon 1:15 AM AKDT (5/27) 7:09 AM AKDT (5/27)
Length of Visible Light 24h 00m
Length of Day
20h 05m
Waning Gibbous, 90% of the Moon is Illuminated
May 27
Waning Gibbous
May 31
Last Quarter
Jun 8
New
Jun 16
First Quarter
Jun 23
Full

Hourly Weather History & Observations

Time (AKDT) Temp. Dew Point Humidity Pressure Visibility Wind Dir Wind Speed Gust Speed Precip Events Conditions
12:53 AM 57.9 °F 41.0 °F 53% 29.80 in 10.0 mi Calm Calm - N/A   Mostly Cloudy
1:53 AM 55.9 °F 43.0 °F 62% 29.81 in 10.0 mi Calm Calm - N/A   Mostly Cloudy
2:53 AM 55.9 °F 37.9 °F 51% 29.83 in 10.0 mi NNE 3.5 mph - N/A   Mostly Cloudy
3:53 AM 52.0 °F 37.9 °F 59% 29.83 in 10.0 mi NE 9.2 mph - N/A   Mostly Cloudy
4:53 AM 53.1 °F 39.0 °F 59% 29.85 in 10.0 mi NE 8.1 mph - N/A   Mostly Cloudy
5:53 AM 55.0 °F 39.0 °F 55% 29.86 in 10.0 mi East 5.8 mph - N/A   Mostly Cloudy
6:53 AM 57.9 °F 37.9 °F 47% 29.86 in 10.0 mi NNE 6.9 mph - N/A   Mostly Cloudy
7:53 AM 62.1 °F 37.0 °F 39% 29.87 in 10.0 mi ENE 5.8 mph - N/A   Mostly Cloudy
8:53 AM 64.9 °F 36.0 °F 34% 29.86 in 10.0 mi East 5.8 mph - N/A   Mostly Cloudy
9:53 AM 69.1 °F 36.0 °F 30% 29.86 in 10.0 mi North 4.6 mph - N/A   Scattered Clouds
10:53 AM 70.0 °F 35.1 °F 28% 29.85 in 10.0 mi East 6.9 mph - N/A   Scattered Clouds
11:53 AM 72.0 °F 35.1 °F 26% 29.84 in 10.0 mi NNW 3.5 mph - N/A   Scattered Clouds
12:53 PM 75.0 °F 37.0 °F 25% 29.83 in 10.0 mi Variable 5.8 mph - N/A   Mostly Cloudy
1:53 PM 77.0 °F 35.1 °F 22% 29.81 in 10.0 mi WNW 5.8 mph - N/A   Mostly Cloudy
2:53 PM 78.1 °F 36.0 °F 22% 29.80 in 10.0 mi Calm Calm - N/A   Mostly Cloudy
3:53 PM 79.0 °F 36.0 °F 21% 29.78 in 10.0 mi Variable 3.5 mph - N/A   Scattered Clouds
4:53 PM 80.1 °F 36.0 °F 20% 29.76 in 10.0 mi East 8.1 mph - N/A   Mostly Cloudy
5:53 PM 79.0 °F 37.0 °F 22% 29.76 in 10.0 mi East 6.9 mph - N/A   Mostly Cloudy
6:53 PM 78.1 °F 37.9 °F 24% 29.75 in 10.0 mi East 4.6 mph - N/A   Scattered Clouds
7:53 PM 79.0 °F 39.0 °F 24% 29.74 in 10.0 mi North 5.8 mph - N/A   Scattered Clouds
8:53 PM 75.9 °F 39.0 °F 26% 29.73 in 10.0 mi NNW 6.9 mph - N/A   Scattered Clouds
9:53 PM 73.0 °F 37.9 °F 28% 29.74 in 10.0 mi SW 3.5 mph - N/A   Scattered Clouds
10:53 PM 66.9 °F 39.9 °F 37% 29.74 in 10.0 mi NW 4.6 mph - N/A   Scattered Clouds
11:53 PM 64.0 °F 42.1 °F 45% 29.75 in 10.0 mi Calm Calm - N/A   Scattered Clouds